timestamp,wind_dir_avg,wind_spd_avg,wind_spd_max_dir,wind_spd_gust,battery_voltage,lat,long
2021-07-05 00:04:01+00:00,62.0,8.56,68.0,9.83,13.21,47.59359,-54.27349
2021-07-05 00:14:01+00:00,65.0,9.31,68.0,10.98,12.65,47.59359,-54.27349
2021-07-05 00:24:01+00:00,68.0,8.9,75.0,10.0,12.65,47.59359,-54.27349
2021-07-05 00:34:01+00:00,70.0,8.61,73.0,9.85,12.65,47.59359,-54.27349
2021-07-05 00:44:01+00:00,69.0,9.46,71.0,11.44,12.65,47.59359,-54.27349
2021-07-05 00:54:01+00:00,65.0,9.13,66.0,10.49,12.65,47.59359,-54.27349
2021-07-05 01:04:01+00:00,67.0,8.79,70.0,10.11,12.65,47.59359,-54.27349
2021-07-05 01:14:01+00:00,66.0,8.2,69.0,9.68,12.57,47.59359,-54.27349
2021-07-05 01:24:01+00:00,66.0,8.09,65.0,8.9,12.57,47.59359,-54.27349
2021-07-05 01:34:01+00:00,66.0,7.4,68.0,8.28,12.57,47.59359,-54.27349
2021-07-05 01:44:01+00:00,63.0,6.73,59.0,7.59,12.57,47.59359,-54.27349
2021-07-05 01:54:01+00:00,63.0,6.81,63.0,7.75,12.57,47.59359,-54.27349
2021-07-05 02:04:01+00:00,71.0,5.79,68.0,7.08,12.57,47.59359,-54.27349
2021-07-05 02:14:00+00:00,72.0,6.26,73.0,7.84,12.57,47.59359,-54.27349
2021-07-05 02:24:00+00:00,69.0,6.18,68.0,7.68,12.57,47.59359,-54.27349
2021-07-05 02:34:00+00:00,72.0,5.36,67.0,6.73,12.57,47.59359,-54.27349
2021-07-05 02:44:00+00:00,72.0,4.71,69.0,5.55,12.57,47.59359,-54.27349
2021-07-05 02:54:00+00:00,72.0,4.96,67.0,5.58,12.57,47.59359,-54.27349
2021-07-05 03:04:00+00:00,68.0,6.86,74.0,8.01,12.57,47.59359,-54.27349
2021-07-05 03:14:00+00:00,68.0,5.55,62.0,6.45,12.57,47.59359,-54.27349
2021-07-05 03:24:00+00:00,71.0,5.28,66.0,6.65,12.57,47.59359,-54.27349
2021-07-05 03:34:00+00:00,65.0,6.62,64.0,7.36,12.57,47.59359,-54.27349
2021-07-05 03:44:00+00:00,69.0,4.86,63.0,5.8,12.57,47.59359,-54.27349
2021-07-05 03:54:00+00:00,67.0,5.03,59.0,5.86,12.57,47.59359,-54.27349
2021-07-05 04:04:00+00:00,66.0,4.66,65.0,5.42,12.57,47.59359,-54.27349
2021-07-05 04:14:01+00:00,66.0,6.37,68.0,7.16,12.57,47.59359,-54.27349
2021-07-05 04:24:01+00:00,71.0,5.29,69.0,6.55,12.57,47.59359,-54.27349
2021-07-05 04:34:01+00:00,69.0,4.11,59.0,5.12,12.57,47.59359,-54.27349
2021-07-05 04:44:01+00:00,72.0,3.51,72.0,4.27,12.57,47.59359,-54.27349
2021-07-05 04:54:01+00:00,70.0,4.88,75.0,5.27,12.57,47.59359,-54.27349
2021-07-05 05:04:01+00:00,67.0,5.46,68.0,6.64,12.57,47.59359,-54.27349
2021-07-05 05:14:01+00:00,68.0,4.82,69.0,5.42,12.57,47.59359,-54.27349
2021-07-05 05:24:01+00:00,69.0,4.72,71.0,5.43,12.57,47.59359,-54.27349
2021-07-05 05:34:01+00:00,68.0,4.72,62.0,5.33,12.57,47.59359,-54.27349
2021-07-05 05:44:01+00:00,74.0,4.15,71.0,4.82,12.57,47.59359,-54.27349
2021-07-05 05:54:01+00:00,74.0,3.49,59.0,4.34,12.57,47.59359,-54.27349
2021-07-05 06:04:01+00:00,94.0,3.42,101.0,4.21,12.57,47.59359,-54.27349
2021-07-05 06:14:01+00:00,99.0,2.66,131.0,3.9,12.49,47.59359,-54.27349
2021-07-05 06:24:01+00:00,315.0,0.01,71.0,0.0,12.49,47.59359,-54.27349
2021-07-05 06:34:01+00:00,315.0,0.01,71.0,0.0,12.49,47.59359,-54.27349
2021-07-05 06:44:01+00:00,105.0,2.6,128.0,4.35,12.49,47.59359,-54.27349
2021-07-05 06:54:01+00:00,97.0,3.46,92.0,4.75,12.49,47.59359,-54.27349
2021-07-05 07:04:01+00:00,95.0,2.66,77.0,3.75,12.49,47.59359,-54.27349
2021-07-05 07:14:01+00:00,86.0,2.87,88.0,3.69,12.49,47.59359,-54.27349
2021-07-05 07:24:01+00:00,84.0,3.75,98.0,4.78,12.49,47.59359,-54.27349
2021-07-05 07:34:01+00:00,89.0,3.04,110.0,4.33,12.49,47.59359,-54.27349
2021-07-05 07:44:01+00:00,91.0,3.0,84.0,4.24,12.49,47.59359,-54.27349
2021-07-05 07:54:01+00:00,105.0,3.39,127.0,4.94,12.49,47.59359,-54.27349
2021-07-05 08:04:01+00:00,96.0,2.96,106.0,4.11,12.49,47.59359,-54.27349
2021-07-05 08:14:01+00:00,83.0,2.78,89.0,3.97,12.41,47.59359,-54.27349
2021-07-05 08:24:01+00:00,99.0,2.79,122.0,4.76,12.41,47.59359,-54.27349
2021-07-05 08:34:01+00:00,88.0,1.87,72.0,2.75,12.41,47.59359,-54.27349
2021-07-05 08:44:01+00:00,76.0,2.37,69.0,3.28,12.41,47.59359,-54.27349
2021-07-05 08:54:01+00:00,81.0,2.24,93.0,2.97,12.41,47.59359,-54.27349
2021-07-05 09:04:01+00:00,74.0,3.09,75.0,3.43,12.41,47.59359,-54.27349
2021-07-05 09:14:01+00:00,71.0,3.61,65.0,4.15,12.41,47.59359,-54.27349
2021-07-05 09:24:01+00:00,64.0,3.33,61.0,3.77,12.41,47.59359,-54.27349
2021-07-05 09:34:01+00:00,64.0,3.41,59.0,3.81,12.41,47.59359,-54.27349
2021-07-05 09:44:01+00:00,64.0,3.44,66.0,4.07,12.41,47.59359,-54.27349
2021-07-05 09:54:01+00:00,60.0,3.18,64.0,3.57,12.41,47.59359,-54.27349
2021-07-05 10:04:01+00:00,62.0,3.08,64.0,3.39,12.41,47.59359,-54.27349
2021-07-05 10:14:01+00:00,63.0,3.26,63.0,3.77,12.57,47.59359,-54.27349
2021-07-05 10:24:01+00:00,57.0,3.1,60.0,3.33,12.57,47.59359,-54.27349
2021-07-05 10:34:01+00:00,65.0,2.58,65.0,3.03,12.57,47.59359,-54.27349
2021-07-05 10:44:01+00:00,68.0,2.51,72.0,2.93,12.57,47.59359,-54.27349
2021-07-05 10:54:01+00:00,70.0,2.49,69.0,2.68,12.57,47.59359,-54.27349
2021-07-05 11:04:01+00:00,71.0,2.46,69.0,2.65,12.57,47.59359,-54.27349
2021-07-05 11:14:01+00:00,73.0,2.66,73.0,2.94,12.81,47.59359,-54.27349
2021-07-05 11:24:01+00:00,70.0,2.59,67.0,2.87,12.81,47.59359,-54.27349
2021-07-05 11:34:01+00:00,79.0,1.84,78.0,2.37,12.81,47.59359,-54.27349
2021-07-05 11:44:01+00:00,78.0,0.85,67.0,1.19,12.81,47.59359,-54.27349
2021-07-05 11:54:01+00:00,74.0,1.28,69.0,1.56,12.81,47.59359,-54.27349
2021-07-05 12:04:01+00:00,61.0,1.1,64.0,1.25,12.81,47.59359,-54.27349
2021-07-05 12:14:01+00:00,108.0,1.35,107.0,1.44,13.44,47.59359,-54.27349
2021-07-05 12:24:01+00:00,122.0,0.62,123.0,1.07,13.44,47.59359,-54.27349
2021-07-05 12:34:01+00:00,183.0,2.93,194.0,3.75,13.44,47.59359,-54.27349
2021-07-05 12:44:01+00:00,213.0,7.36,212.0,7.86,13.44,47.59359,-54.27349
2021-07-05 12:54:01+00:00,208.0,7.71,205.0,8.75,13.44,47.59359,-54.27349
2021-07-05 13:04:01+00:00,212.0,7.11,212.0,7.7,13.44,47.59359,-54.27349
2021-07-05 13:14:01+00:00,215.0,6.88,211.0,7.68,13.6,47.59359,-54.27349
2021-07-05 13:24:01+00:00,218.0,6.2,220.0,7.06,13.6,47.59359,-54.27349
2021-07-05 13:34:01+00:00,218.0,6.2,209.0,7.71,13.6,47.59359,-54.27349
2021-07-05 13:44:01+00:00,207.0,6.84,207.0,7.47,13.6,47.59359,-54.27349
2021-07-05 13:54:01+00:00,212.0,7.54,213.0,8.36,13.6,47.59359,-54.27349
2021-07-05 14:04:01+00:00,210.0,7.84,209.0,8.81,13.6,47.59359,-54.27349
2021-07-05 14:14:01+00:00,211.0,8.58,208.0,9.46,14.16,47.59359,-54.27349
2021-07-05 14:24:01+00:00,212.0,8.36,211.0,9.57,14.16,47.59359,-54.27349
2021-07-05 14:34:01+00:00,211.0,8.85,206.0,9.73,14.16,47.59359,-54.27349
2021-07-05 14:44:01+00:00,209.0,9.44,206.0,11.58,14.16,47.59359,-54.27349
2021-07-05 14:54:01+00:00,206.0,9.74,206.0,10.49,14.16,47.59359,-54.27349
2021-07-05 15:04:01+00:00,208.0,9.24,209.0,10.88,14.16,47.59359,-54.27349
2021-07-05 15:14:01+00:00,205.0,8.45,206.0,9.27,14.32,47.59359,-54.27349
2021-07-05 15:24:01+00:00,204.0,8.78,200.0,9.45,14.32,47.59359,-54.27349
2021-07-05 15:34:01+00:00,208.0,8.7,205.0,9.87,14.32,47.59359,-54.27349
2021-07-05 15:44:01+00:00,207.0,10.9,206.0,12.23,14.32,47.59359,-54.27349
2021-07-05 15:54:01+00:00,210.0,10.46,207.0,11.43,14.32,47.59359,-54.27349
2021-07-05 16:04:01+00:00,208.0,9.47,208.0,10.71,14.32,47.59359,-54.27349
2021-07-05 16:14:01+00:00,210.0,9.83,212.0,11.47,13.68,47.59359,-54.27349
2021-07-05 16:24:01+00:00,206.0,10.73,208.0,11.73,13.68,47.59359,-54.27349
2021-07-05 16:34:01+00:00,203.0,9.45,205.0,10.16,13.68,47.59359,-54.27349
2021-07-05 16:44:01+00:00,209.0,8.83,212.0,9.99,13.68,47.59359,-54.27349
2021-07-05 16:54:01+00:00,210.0,9.46,206.0,11.51,13.68,47.59359,-54.27349
2021-07-05 17:04:01+00:00,213.0,9.91,211.0,11.51,13.68,47.59359,-54.27349
2021-07-05 17:14:01+00:00,213.0,10.63,213.0,12.5,13.76,47.59359,-54.27349
2021-07-05 17:24:01+00:00,212.0,10.74,214.0,11.97,13.76,47.59359,-54.27349
2021-07-05 17:34:01+00:00,213.0,9.31,213.0,10.56,13.76,47.59359,-54.27349
2021-07-05 17:44:01+00:00,209.0,8.73,208.0,10.01,13.76,47.59359,-54.27349
2021-07-05 17:54:01+00:00,210.0,10.19,210.0,12.07,13.76,47.59359,-54.27349
2021-07-05 18:04:01+00:00,205.0,9.78,202.0,11.14,13.76,47.59359,-54.27349
2021-07-05 18:14:01+00:00,203.0,10.24,202.0,11.55,14.32,47.59359,-54.27349
2021-07-05 18:24:01+00:00,206.0,9.17,205.0,9.91,14.32,47.59359,-54.27349
2021-07-05 18:34:01+00:00,208.0,9.47,212.0,10.49,14.32,47.59359,-54.27349
2021-07-05 18:44:01+00:00,204.0,9.18,203.0,10.37,14.32,47.59359,-54.27349
2021-07-05 18:54:01+00:00,208.0,8.86,205.0,10.53,14.32,47.59359,-54.27349
2021-07-05 19:04:01+00:00,206.0,9.19,204.0,10.3,14.32,47.59359,-54.27349
2021-07-05 19:14:01+00:00,214.0,9.08,215.0,10.08,13.84,47.59359,-54.27349
2021-07-05 19:24:01+00:00,212.0,9.16,208.0,10.93,13.84,47.59359,-54.27349
2021-07-05 19:34:01+00:00,212.0,9.65,209.0,10.66,13.84,47.59359,-54.27349
2021-07-05 19:44:01+00:00,212.0,8.5,210.0,10.96,13.84,47.59359,-54.27349
2021-07-05 19:54:01+00:00,213.0,9.04,209.0,10.32,13.84,47.59359,-54.27349
2021-07-05 20:04:01+00:00,212.0,8.84,211.0,10.37,13.84,47.59359,-54.27349
2021-07-05 20:14:01+00:00,215.0,8.86,214.0,10.01,13.84,47.59359,-54.27349
2021-07-05 20:24:01+00:00,206.0,10.01,204.0,11.15,13.84,47.59359,-54.27349
2021-07-05 20:34:01+00:00,208.0,9.3,211.0,10.5,13.84,47.59359,-54.27349
2021-07-05 20:44:01+00:00,206.0,9.97,203.0,10.98,13.84,47.59359,-54.27349
2021-07-05 20:54:01+00:00,202.0,8.85,206.0,9.87,13.84,47.59359,-54.27349
2021-07-05 21:04:01+00:00,206.0,9.17,210.0,10.35,13.84,47.59359,-54.27349
2021-07-05 21:14:01+00:00,207.0,8.95,207.0,9.91,13.53,47.59359,-54.27349
2021-07-05 21:24:01+00:00,204.0,8.57,205.0,9.35,13.53,47.59359,-54.27349
2021-07-05 21:34:01+00:00,205.0,8.28,206.0,9.56,13.53,47.59359,-54.27349
2021-07-05 21:44:01+00:00,203.0,9.08,202.0,10.66,13.53,47.59359,-54.27349
2021-07-05 21:54:01+00:00,201.0,7.95,196.0,9.0,13.53,47.59359,-54.27349
2021-07-05 22:04:01+00:00,206.0,9.03,206.0,10.12,13.53,47.59359,-54.27349
2021-07-05 22:14:01+00:00,203.0,9.04,202.0,10.04,13.29,47.59359,-54.27349
2021-07-05 22:24:01+00:00,204.0,8.4,204.0,9.4,13.29,47.59359,-54.27349
2021-07-05 22:34:01+00:00,208.0,9.15,209.0,10.51,13.29,47.59359,-54.27349
2021-07-05 22:44:01+00:00,210.0,7.73,210.0,8.88,13.29,47.59359,-54.27349
2021-07-05 22:54:01+00:00,207.0,8.76,203.0,9.69,13.29,47.59359,-54.27349
2021-07-05 23:04:01+00:00,208.0,9.09,209.0,10.17,13.29,47.59359,-54.27349
2021-07-05 23:14:01+00:00,210.0,8.84,207.0,10.07,12.97,47.59359,-54.27349
2021-07-05 23:24:01+00:00,209.0,8.55,207.0,9.27,12.97,47.59359,-54.27349
2021-07-05 23:34:01+00:00,212.0,8.0,213.0,9.01,12.97,47.59359,-54.27349
2021-07-05 23:44:01+00:00,209.0,8.12,206.0,9.32,12.97,47.59359,-54.27349
2021-07-05 23:54:01+00:00,215.0,9.17,215.0,10.25,12.97,47.59359,-54.27349
